Powrót do katalogu

STARLINK-35551

AktywnyŁącznośćVLEO
NORAD 66200·PAYLOAD·🇺🇸 United States

Wystrzelony Oct 26, 2025 z Cape Canaveral Space Force Station

Loading…

Następne Przeloty (najbliższe 24 godziny)

TLE

ŚwieżeSource: CelesTrak SupGP

Epoka: Sep 15, 2026, 03:18 UTC

1 66200C 25243Z   26258.13798611 -.00027370  00000+0 -80871-3 0  2584
2 66200  53.1592  84.4756 0001162  91.4541 157.7959 15.34402430    19

Śledź STARLINK-35551 w czasie rzeczywistym z AllMySat

Download on the App Store